VTK225 UOOO-UNKL

Flight info

Callsign VTK225
Flight time 1h 50m
Altitude 33000
Route OLURI2B OLURI G490 PTG A818 ENS G809 DEBAR DEBAR2R
Aircraft A321/M-SDE3FGHIRWY/LB1

Departure

Time 2026-05-01 10:25
Airport Alykel International Airport (UOOO)

Arrival

Time 2026-05-01 12:15
Airport Krasnoyarsk International Airport (UNKL)
Time Latitude Longitude Altitude Speed Heading
2026-05-01 09:48 69.32353 87.34228 603 ft 0 kts 302°
2026-05-01 10:17 69.32347 87.34256 603 ft 4 kts 300°
2026-05-01 10:18 69.32332 87.34395 603 ft 4 kts 252°
2026-05-01 10:18 69.32339 87.34433 603 ft 0 kts 212°
2026-05-01 10:21 69.32286 87.34338 603 ft 8 kts 212°
2026-05-01 10:21 69.32237 87.34251 603 ft 9 kts 212°
2026-05-01 10:22 69.32123 87.34048 603 ft 10 kts 212°
2026-05-01 10:22 69.32025 87.34259 603 ft 11 kts 122°
2026-05-01 10:23 69.31980 87.34458 601 ft 13 kts 123°
2026-05-01 10:23 69.31933 87.34643 603 ft 3 kts 146°
2026-05-01 10:23 69.31909 87.34630 603 ft 4 kts 212°
2026-05-01 10:24 69.31512 87.33921 597 ft 96 kts 212°
2026-05-01 10:24 69.29772 87.30861 1006 ft 170 kts 211°
2026-05-01 10:25 69.27793 87.27380 2592 ft 168 kts 214°
2026-05-01 10:25 69.25572 87.23357 2996 ft 211 kts 214°
2026-05-01 10:26 69.24258 87.20991 3178 ft 236 kts 212°
2026-05-01 10:26 69.22644 87.19656 3648 ft 252 kts 183°
2026-05-01 10:26 69.19116 87.21413 4990 ft 265 kts 167°
2026-05-01 10:27 69.15504 87.24143 6404 ft 271 kts 168°
2026-05-01 10:27 69.11793 87.26538 7801 ft 276 kts 171°
2026-05-01 10:28 69.09905 87.27622 8491 ft 278 kts 171°
2026-05-01 10:28 69.06092 87.29695 9872 ft 284 kts 172°
2026-05-01 10:28 69.04126 87.30740 10309 ft 296 kts 172°
2026-05-01 10:29 68.99779 87.33017 10589 ft 337 kts 171°
2026-05-01 10:29 68.97408 87.34261 10756 ft 355 kts 171°
2026-05-01 10:30 68.92478 87.36869 11875 ft 364 kts 171°
2026-05-01 10:30 68.87451 87.39357 13111 ft 369 kts 177°
2026-05-01 10:31 68.82333 87.40418 14312 ft 374 kts 178°
2026-05-01 10:31 68.77103 87.41496 15456 ft 379 kts 178°
2026-05-01 10:32 68.71798 87.42592 16589 ft 385 kts 178°
2026-05-01 10:32 68.69108 87.43147 17152 ft 388 kts 178°
2026-05-01 10:32 68.63676 87.44245 18282 ft 394 kts 179°
2026-05-01 10:33 68.58189 87.45330 19215 ft 400 kts 179°
2026-05-01 10:33 68.52587 87.46461 20120 ft 406 kts 178°
2026-05-01 10:34 68.49753 87.47036 20564 ft 409 kts 178°
2026-05-01 10:34 68.46900 87.47611 21002 ft 412 kts 178°
2026-05-01 10:34 68.44066 87.48183 21428 ft 414 kts 178°
2026-05-01 10:35 68.38264 87.49333 22286 ft 420 kts 178°
2026-05-01 10:35 68.35335 87.49906 22713 ft 422 kts 178°
2026-05-01 10:35 68.32387 87.50479 23111 ft 425 kts 178°
2026-05-01 10:35 68.29427 87.51055 23511 ft 428 kts 178°
2026-05-01 10:36 68.23452 87.52219 24155 ft 433 kts 178°
2026-05-01 10:36 68.20471 87.52806 24462 ft 435 kts 178°
2026-05-01 10:36 68.17440 87.53401 24770 ft 438 kts 179°
2026-05-01 10:37 68.14397 87.53999 25057 ft 441 kts 179°
2026-05-01 10:37 68.08239 87.55202 25627 ft 445 kts 179°
2026-05-01 10:37 68.05132 87.55794 25905 ft 448 kts 179°
2026-05-01 10:38 68.02023 87.56385 26180 ft 450 kts 179°
2026-05-01 10:38 67.98884 87.56987 26449 ft 452 kts 179°
2026-05-01 10:38 67.95736 87.57599 26724 ft 455 kts 179°
2026-05-01 10:38 67.92557 87.58221 26999 ft 457 kts 179°
2026-05-01 10:39 67.89377 87.58842 27276 ft 459 kts 179°
2026-05-01 10:39 67.86184 87.59455 27599 ft 460 kts 179°
2026-05-01 10:39 67.83019 87.60047 27934 ft 460 kts 180°
2026-05-01 10:39 67.79821 87.60641 28265 ft 461 kts 180°
2026-05-01 10:40 67.76621 87.61243 28623 ft 461 kts 180°
2026-05-01 10:40 67.73420 87.61846 28980 ft 461 kts 180°
2026-05-01 10:40 67.70212 87.62448 29340 ft 461 kts 180°
2026-05-01 10:40 67.67004 87.63047 29689 ft 461 kts 180°
2026-05-01 10:41 67.63804 87.63639 30041 ft 461 kts 180°
2026-05-01 10:41 67.60597 87.64228 30329 ft 461 kts 180°
2026-05-01 10:41 67.54196 87.65401 30845 ft 461 kts 180°
2026-05-01 10:42 67.50994 87.65985 31059 ft 462 kts 181°
2026-05-01 10:42 67.47783 87.66574 31249 ft 463 kts 181°
2026-05-01 10:42 67.44565 87.67163 31484 ft 464 kts 181°
2026-05-01 10:42 67.41380 87.67744 31726 ft 464 kts 181°
2026-05-01 10:43 67.38159 87.68329 31970 ft 464 kts 181°
2026-05-01 10:43 67.34937 87.68917 32218 ft 464 kts 181°
2026-05-01 10:43 67.31716 87.69505 32466 ft 464 kts 181°
2026-05-01 10:43 67.28488 87.70096 32705 ft 464 kts 181°
2026-05-01 10:44 67.25267 87.70690 32940 ft 464 kts 181°
2026-05-01 10:44 67.22035 87.71283 33070 ft 465 kts 181°
2026-05-01 10:44 67.18796 87.71866 33065 ft 466 kts 181°
2026-05-01 10:45 67.12354 87.73003 33096 ft 467 kts 181°
2026-05-01 10:45 67.05855 87.74141 33092 ft 467 kts 181°
2026-05-01 10:46 66.99364 87.75246 33095 ft 467 kts 181°
2026-05-01 10:46 66.92872 87.76297 33096 ft 467 kts 182°
2026-05-01 10:47 66.86427 87.77312 33055 ft 467 kts 182°
2026-05-01 10:47 66.79931 87.78341 33080 ft 468 kts 182°
2026-05-01 10:48 66.73418 87.79375 33110 ft 469 kts 182°
2026-05-01 10:48 66.66906 87.80408 33120 ft 469 kts 182°
2026-05-01 10:49 66.60419 87.81428 33122 ft 469 kts 182°
2026-05-01 10:49 66.53903 87.82454 33089 ft 469 kts 183°
2026-05-01 10:50 66.47375 87.83490 33101 ft 470 kts 183°
2026-05-01 10:50 66.40843 87.84514 33114 ft 470 kts 183°
2026-05-01 10:51 66.34309 87.85531 33122 ft 470 kts 184°
2026-05-01 10:51 66.27819 87.86521 33122 ft 470 kts 184°
2026-05-01 10:52 66.21281 87.87517 33079 ft 470 kts 184°
2026-05-01 10:52 66.14744 87.88479 33092 ft 470 kts 184°
2026-05-01 10:53 66.08198 87.89424 33108 ft 471 kts 184°
2026-05-01 10:53 66.01654 87.90376 33116 ft 471 kts 184°
2026-05-01 10:54 65.96217 87.91177 33125 ft 471 kts 184°
2026-05-01 10:54 65.88590 87.92299 33086 ft 472 kts 185°
2026-05-01 10:55 65.82025 87.93253 33101 ft 472 kts 185°
2026-05-01 10:55 65.75445 87.96046 33112 ft 484 kts 175°
2026-05-01 10:56 65.68905 87.99683 33120 ft 484 kts 175°
2026-05-01 10:56 65.62323 88.03314 33128 ft 485 kts 175°
2026-05-01 10:57 65.55739 88.06917 33120 ft 486 kts 176°
2026-05-01 10:57 65.49129 88.10520 33133 ft 487 kts 176°
2026-05-01 10:58 65.42559 88.14085 33141 ft 487 kts 176°
2026-05-01 10:58 65.35939 88.17655 33143 ft 486 kts 176°
2026-05-01 10:59 65.29328 88.21212 33146 ft 486 kts 176°
2026-05-01 10:59 65.22726 88.24756 33145 ft 486 kts 176°
2026-05-01 11:00 65.16154 88.28255 33146 ft 486 kts 176°
2026-05-01 11:00 65.09554 88.31759 33146 ft 486 kts 176°
2026-05-01 11:01 65.02955 88.35242 33144 ft 486 kts 176°
2026-05-01 11:01 64.96364 88.38772 33043 ft 487 kts 176°
2026-05-01 11:01 64.93041 88.40576 33151 ft 490 kts 176°
2026-05-01 11:02 64.90839 88.41768 33141 ft 492 kts 176°
2026-05-01 11:02 64.84135 88.45382 33137 ft 494 kts 176°
2026-05-01 11:03 64.76346 88.49539 33137 ft 494 kts 176°
2026-05-01 11:03 64.70730 88.52527 33145 ft 495 kts 176°
2026-05-01 11:04 64.64009 88.56103 33127 ft 495 kts 176°
2026-05-01 11:04 64.57309 88.59642 33146 ft 497 kts 177°
2026-05-01 11:05 64.50563 88.63175 33154 ft 497 kts 177°
2026-05-01 11:05 64.43815 88.66683 33160 ft 497 kts 177°
2026-05-01 11:06 64.37066 88.70184 33167 ft 497 kts 177°
2026-05-01 11:06 64.30316 88.73664 33119 ft 497 kts 177°
2026-05-01 11:07 64.20181 88.78857 33135 ft 497 kts 177°
2026-05-01 11:07 64.13471 88.82278 33146 ft 497 kts 177°
2026-05-01 11:08 64.06705 88.85718 33156 ft 497 kts 177°
2026-05-01 11:09 63.96563 88.90840 33152 ft 497 kts 178°
2026-05-01 11:09 63.89804 88.94225 33161 ft 497 kts 178°
2026-05-01 11:10 63.79670 88.99265 33166 ft 497 kts 178°
2026-05-01 11:10 63.72951 89.02582 33115 ft 497 kts 178°
2026-05-01 11:11 63.66188 89.05921 33140 ft 497 kts 178°
2026-05-01 11:11 63.59427 89.09248 33169 ft 497 kts 178°
2026-05-01 11:12 63.52674 89.12534 33175 ft 496 kts 178°
2026-05-01 11:12 63.45925 89.15793 33179 ft 496 kts 178°
2026-05-01 11:13 63.39181 89.19056 33140 ft 496 kts 178°
2026-05-01 11:13 63.32438 89.22311 33159 ft 496 kts 178°
2026-05-01 11:14 63.25737 89.25502 33166 ft 496 kts 179°
2026-05-01 11:14 63.18991 89.28696 33173 ft 496 kts 178°
2026-05-01 11:15 63.12237 89.31892 33114 ft 496 kts 178°
2026-05-01 11:15 63.05494 89.35110 33151 ft 496 kts 178°
2026-05-01 11:16 62.98740 89.38345 33162 ft 496 kts 178°
2026-05-01 11:16 62.91986 89.41560 33167 ft 496 kts 178°
2026-05-01 11:17 62.85247 89.44718 33170 ft 496 kts 178°
2026-05-01 11:17 62.78494 89.47866 33166 ft 496 kts 178°
2026-05-01 11:18 62.71735 89.51026 33167 ft 497 kts 178°
2026-05-01 11:18 62.65023 89.54160 33168 ft 496 kts 178°
2026-05-01 11:19 62.58260 89.57287 33175 ft 496 kts 178°
2026-05-01 11:19 62.51507 89.60401 33120 ft 496 kts 178°
2026-05-01 11:20 62.44740 89.63511 33130 ft 496 kts 178°
2026-05-01 11:20 62.37983 89.66596 33141 ft 496 kts 178°
2026-05-01 11:21 62.31262 89.69654 33150 ft 496 kts 178°
2026-05-01 11:21 62.24503 89.72707 33156 ft 496 kts 178°
2026-05-01 11:22 62.17728 89.75755 33160 ft 496 kts 178°
2026-05-01 11:22 62.10968 89.78786 33161 ft 496 kts 178°
2026-05-01 11:23 62.04255 89.81779 33160 ft 496 kts 178°
2026-05-01 11:23 61.97482 89.84789 33164 ft 496 kts 178°
2026-05-01 11:24 61.90718 89.87790 33145 ft 496 kts 178°
2026-05-01 11:25 61.80566 89.92274 33170 ft 497 kts 178°
2026-05-01 11:25 61.70416 89.96754 33171 ft 496 kts 178°
2026-05-01 11:26 61.60313 90.01215 33133 ft 500 kts 174°
2026-05-01 11:27 61.53632 90.05902 33141 ft 508 kts 169°
2026-05-01 11:27 61.46937 90.10779 33148 ft 508 kts 169°
2026-05-01 11:28 61.40238 90.15622 33157 ft 509 kts 169°
2026-05-01 11:28 61.33587 90.20416 33145 ft 509 kts 169°
2026-05-01 11:29 61.23524 90.27625 33179 ft 510 kts 169°
2026-05-01 11:30 61.13459 90.34793 33179 ft 509 kts 169°
2026-05-01 11:30 61.06756 90.39546 33182 ft 509 kts 169°
2026-05-01 11:31 61.00048 90.44290 33143 ft 509 kts 169°
2026-05-01 11:31 60.93351 90.49006 33172 ft 508 kts 169°
2026-05-01 11:32 60.86656 90.53690 33184 ft 508 kts 169°
2026-05-01 11:32 60.79998 90.58326 33181 ft 508 kts 169°
2026-05-01 11:33 60.73304 90.62963 33136 ft 508 kts 168°
2026-05-01 11:33 60.66605 90.67577 33161 ft 507 kts 168°
2026-05-01 11:34 60.59915 90.72179 33174 ft 509 kts 168°
2026-05-01 11:34 60.53186 90.76809 33166 ft 510 kts 168°
2026-05-01 11:35 60.46503 90.81376 33160 ft 510 kts 168°
2026-05-01 11:35 60.39761 90.85941 33169 ft 511 kts 168°
2026-05-01 11:36 60.33016 90.90497 33178 ft 510 kts 168°
2026-05-01 11:36 60.26276 90.95051 33181 ft 510 kts 168°
2026-05-01 11:37 60.19600 90.99641 33179 ft 510 kts 168°
2026-05-01 11:37 60.12875 91.04270 33160 ft 510 kts 167°
2026-05-01 11:38 60.06160 91.08852 33169 ft 509 kts 167°
2026-05-01 11:38 59.99446 91.13380 33171 ft 509 kts 168°
2026-05-01 11:39 59.92726 91.17890 33162 ft 509 kts 168°
2026-05-01 11:39 59.86009 91.22394 33130 ft 508 kts 167°
2026-05-01 11:40 59.79345 91.26859 33152 ft 508 kts 167°
2026-05-01 11:40 59.72637 91.31335 33192 ft 507 kts 167°
2026-05-01 11:41 59.65944 91.35770 33162 ft 508 kts 167°
2026-05-01 11:41 59.59223 91.40200 33100 ft 509 kts 167°
2026-05-01 11:42 59.52485 91.44623 33138 ft 509 kts 167°
2026-05-01 11:42 59.45800 91.48999 33153 ft 510 kts 167°
2026-05-01 11:43 59.39061 91.53395 33161 ft 510 kts 167°
2026-05-01 11:43 59.32324 91.57750 33153 ft 510 kts 167°
2026-05-01 11:44 59.22257 91.64239 33159 ft 510 kts 167°
2026-05-01 11:44 59.15519 91.68585 33162 ft 510 kts 167°
2026-05-01 11:45 59.08772 91.72912 33161 ft 510 kts 167°
2026-05-01 11:45 59.02030 91.77192 33123 ft 510 kts 167°
2026-05-01 11:46 58.95294 91.81449 33152 ft 509 kts 167°
2026-05-01 11:46 58.88556 91.85702 33163 ft 509 kts 167°
2026-05-01 11:47 58.81828 91.89985 33187 ft 508 kts 167°
2026-05-01 11:47 58.75147 91.94236 33156 ft 509 kts 167°
2026-05-01 11:48 58.68401 91.98476 33128 ft 509 kts 167°
2026-05-01 11:48 58.61656 92.02709 33139 ft 509 kts 167°
2026-05-01 11:49 58.54910 92.06937 33141 ft 509 kts 167°
2026-05-01 11:49 58.48169 92.11131 33145 ft 508 kts 169°
2026-05-01 11:50 58.41300 92.13648 33117 ft 501 kts 177°
2026-05-01 11:50 58.34402 92.15705 33127 ft 501 kts 176°
2026-05-01 11:51 58.27505 92.17752 33128 ft 501 kts 177°
2026-05-01 11:51 58.21777 92.19441 33132 ft 501 kts 176°
2026-05-01 11:52 58.13774 92.21801 33119 ft 501 kts 176°
2026-05-01 11:52 58.06878 92.23823 33121 ft 501 kts 176°
2026-05-01 11:53 58.01143 92.25493 33118 ft 501 kts 176°
2026-05-01 11:53 57.94254 92.27521 33118 ft 501 kts 176°
2026-05-01 11:54 57.87360 92.29570 33097 ft 501 kts 176°
2026-05-01 11:54 57.80474 92.31621 33108 ft 501 kts 176°
2026-05-01 11:55 57.73585 92.33636 33113 ft 501 kts 176°
2026-05-01 11:55 57.70139 92.34637 32866 ft 501 kts 176°
2026-05-01 11:55 57.66737 92.35628 32605 ft 500 kts 176°
2026-05-01 11:56 57.63254 92.36638 32337 ft 500 kts 176°
2026-05-01 11:56 57.59863 92.37618 32052 ft 499 kts 176°
2026-05-01 11:56 57.56424 92.38614 31810 ft 499 kts 176°
2026-05-01 11:56 57.52986 92.39613 31553 ft 499 kts 176°
2026-05-01 11:57 57.49554 92.40611 30925 ft 502 kts 176°
2026-05-01 11:57 57.46064 92.41613 29784 ft 512 kts 176°
2026-05-01 11:57 57.42522 92.42630 28743 ft 515 kts 175°
2026-05-01 11:57 57.39019 92.43643 28063 ft 512 kts 175°
2026-05-01 11:58 57.35492 92.44666 27065 ft 513 kts 175°
2026-05-01 11:58 57.31921 92.45689 26018 ft 519 kts 175°
2026-05-01 11:58 57.24951 92.47690 25067 ft 503 kts 174°
2026-05-01 11:59 57.21510 92.48674 24476 ft 498 kts 174°
2026-05-01 11:59 57.18093 92.49640 23867 ft 493 kts 174°
2026-05-01 11:59 57.14698 92.50593 23202 ft 489 kts 174°
2026-05-01 12:00 57.08083 92.52449 21918 ft 479 kts 174°
2026-05-01 12:00 57.04767 92.53387 21311 ft 473 kts 174°
2026-05-01 12:00 56.98385 92.55266 20126 ft 462 kts 174°
2026-05-01 12:01 56.95227 92.56218 19539 ft 457 kts 173°
2026-05-01 12:01 56.92105 92.57159 18977 ft 452 kts 174°
2026-05-01 12:01 56.89009 92.58087 18408 ft 448 kts 174°
2026-05-01 12:01 56.85983 92.58982 17796 ft 443 kts 174°
2026-05-01 12:02 56.82949 92.59870 17220 ft 438 kts 174°
2026-05-01 12:02 56.79954 92.60740 16653 ft 433 kts 174°
2026-05-01 12:02 56.76998 92.61599 16139 ft 429 kts 173°
2026-05-01 12:02 56.74066 92.62454 15641 ft 425 kts 173°
2026-05-01 12:03 56.71164 92.63304 15141 ft 420 kts 173°
2026-05-01 12:03 56.68284 92.64148 14637 ft 416 kts 173°
2026-05-01 12:03 56.65433 92.64988 14130 ft 412 kts 172°
2026-05-01 12:03 56.62665 92.66336 13579 ft 411 kts 162°
2026-05-01 12:04 56.60022 92.68120 12999 ft 407 kts 161°
2026-05-01 12:04 56.57389 92.69896 12411 ft 401 kts 161°
2026-05-01 12:04 56.54796 92.71642 11528 ft 395 kts 161°
2026-05-01 12:04 56.52231 92.73363 10847 ft 385 kts 161°
2026-05-01 12:05 56.49798 92.74996 10694 ft 360 kts 161°
2026-05-01 12:05 56.45418 92.77937 10459 ft 318 kts 161°
2026-05-01 12:05 56.43379 92.79296 10171 ft 308 kts 161°
2026-05-01 12:06 56.41389 92.80617 9942 ft 301 kts 161°
2026-05-01 12:06 56.39420 92.81919 9818 ft 300 kts 161°
2026-05-01 12:06 56.37457 92.83216 9555 ft 301 kts 161°
2026-05-01 12:06 56.35487 92.84518 9126 ft 301 kts 161°
2026-05-01 12:07 56.33528 92.85814 8811 ft 298 kts 161°
2026-05-01 12:07 56.31598 92.87095 8446 ft 297 kts 161°
2026-05-01 12:07 56.29671 92.88373 8120 ft 294 kts 161°
2026-05-01 12:07 56.27759 92.89638 7779 ft 292 kts 161°
2026-05-01 12:08 56.25859 92.90895 7440 ft 290 kts 161°
2026-05-01 12:08 56.23975 92.92138 7180 ft 283 kts 161°
2026-05-01 12:08 56.22189 92.93313 6873 ft 267 kts 161°
2026-05-01 12:08 56.20410 92.94053 6317 ft 260 kts 179°
2026-05-01 12:09 56.18654 92.93797 5898 ft 252 kts 195°
2026-05-01 12:09 56.16995 92.92696 5394 ft 256 kts 205°
2026-05-01 12:09 56.15374 92.91429 5140 ft 253 kts 205°
2026-05-01 12:09 56.13760 92.90180 4786 ft 253 kts 205°
2026-05-01 12:10 56.12123 92.88918 4336 ft 257 kts 205°
2026-05-01 12:10 56.09401 92.85483 4033 ft 231 kts 249°
2026-05-01 12:10 56.09285 92.82725 3827 ft 222 kts 287°
2026-05-01 12:11 56.10476 92.77683 3429 ft 219 kts 294°
2026-05-01 12:11 56.11087 92.75185 3232 ft 218 kts 294°
2026-05-01 12:11 56.11671 92.72768 3099 ft 206 kts 293°
2026-05-01 12:12 56.12212 92.70520 3020 ft 186 kts 294°
2026-05-01 12:12 56.12706 92.68468 2853 ft 174 kts 294°
2026-05-01 12:12 56.13173 92.66527 2679 ft 166 kts 294°
2026-05-01 12:12 56.13628 92.64635 2452 ft 165 kts 294°
2026-05-01 12:13 56.14075 92.62775 2247 ft 157 kts 294°
2026-05-01 12:13 56.14498 92.61008 2036 ft 152 kts 293°
2026-05-01 12:13 56.14912 92.59284 1828 ft 149 kts 294°
2026-05-01 12:13 56.15318 92.57587 1633 ft 149 kts 294°
2026-05-01 12:14 56.15727 92.55881 1442 ft 149 kts 294°
2026-05-01 12:14 56.16139 92.54158 1260 ft 151 kts 293°
2026-05-01 12:14 56.16552 92.52426 1044 ft 151 kts 293°
2026-05-01 12:14 56.16955 92.50735 957 ft 136 kts 293°
2026-05-01 12:15 56.17267 92.49438 954 ft 89 kts 293°
2026-05-01 12:15 56.17392 92.48915 953 ft 18 kts 293°
2026-05-01 12:15 56.17459 92.48745 952 ft 16 kts 321°
2026-05-01 12:15 56.17546 92.48629 955 ft 15 kts 323°
2026-05-01 12:16 56.17631 92.48520 954 ft 15 kts 324°
2026-05-01 12:16 56.17714 92.48415 955 ft 9 kts 326°
2026-05-01 12:16 56.17770 92.48407 954 ft 9 kts 19°
2026-05-01 12:16 56.17827 92.48453 955 ft 7 kts 22°
2026-05-01 12:17 56.17862 92.48499 952 ft 6 kts 68°
2026-05-01 12:17 56.17857 92.48561 954 ft 2 kts 60°
2026-05-01 12:17 56.17880 92.48580 954 ft 5 kts 24°
2026-05-01 12:17 56.17913 92.48606 955 ft 4 kts 24°
2026-05-01 12:18 56.17928 92.48619 955 ft 1 kts 24°
2026-05-01 12:18 56.17929 92.48619 955 ft 0 kts 24°